SCP
0 0 0 0 0 0 0 0 0 0 0 0 0 0 0 0 0 0 0 0 0 0 0 0 0 0 0 0 0 0 0 0 -0 -0 0 0 0 0 0 0 0 0 0
0 0 0 0 0 0 0 0 0 0 0 0 0 0 0 0 0 0 0 0 0 0 0 0 0 0 0 0 0 0 0 0 -0 -0 -0 0 0 0 0 0 0 0 0
0 0 0 0 0 0 0 0 0 0 0 0 0 0 0 0 0 0 0 0 0 0 0 0 0 0 0 0 0 0 0 0 0 0 0 0 0 0 0 0 0 0 0
0 0 0 0 0 0 0 0 0 0 0 0 0 0 0 0 0 0 0 0 0 0 0 0 0 0 0 0 0 0 0 0 0 0 0 0 0 0 0 0 0 0 0
0 0 0 0 0 0 0 0 0 0 0 0 0 0 0 0 0 0 0 0 0 0 0 0 0 0 0 0 0 0 0 0 0 0 0 0 0 0 0 0 0 0 0
0 0 0 0 0 0 0 0 0 0 0 0 0 0 0 0 0 0 0 0 0 0 0 0 0 0 0 0 0 0 0 0 0 0 0 0 0 0 0 0 0 0 0
0 0 0 0 0 0 0 0 0 0 0 0 0 0 0 0 0 0 0 0 0 0 0 0 0 0 0 0 0 0 0 0 0 0 0 0 0 0 0 0 0 0 0
0 0 0 0 0 0 0 0 0 0 0 0 0 0 0 0 0 0 0 0 0 0 0 0 0 0 0 0 0 0 0 0 0 0 0 0 0 0 0 0 0 0 0
0 0 0 0 0 0 0 0 0 0 0 0 0 0 0 0 0 0 0 0 0 0 0 0 0 0 0 0 0 0 0 0 0 0 0 0 0 0 0 0 0 0 0
0 0 0 0 0 0 0 0 0 0 0 0 0 0 0 0 0 0 0 0 0 0 0 0 0 0 0 0 0 0 0 0 0 0 0 0 0 0 0 0 0 0 0
0 0 0 0 0 0 0 0 0 0 0 0 0 0 0 0 0 0 0 0 0 0 0 0 0 0 0 0 0 0 0 0 0 0 0 0 0 0 0 0 0 0 0
0 0 0 0 0 0 0 0 0 0 0 0 0 0 0 0 0 0 0 0 0 0 0 0 0 0 0 0 0 0 0 0 0 0 0 0 0 0 0 0 0 0 0
0 0 0 0 0 0 0 0 0 0 0 0 0 0 0 0 0 0 0 0 0 0 0 0 0 0 0 0 0 0 0 0 0 0 0 0 0 0 0 0 0 0 0
0 0 0 0 0 0 0 0 0 0 0 0 0 0 0 0 0 0 0 -0 0 0 0 0 0 0 0 0 0 0 0 0 0 0 0 0 0 0 0 0 0 0 0
0 0 0 0 0 0 0 0 0 0 0 0 0 0 0 0 0 0 0 0 0 0 0 0 0 0 0 0 0 0 0 0 0 0 0 0 0 0 0 0 0 0 0
0 0 0 0 0 0 0 0 0 0 0 0 0 0 0 0 0 0 0 0 0 0 0 0 0 0 0 0 0 0 0 0 0 0 0 0 0 0 0 0 0 0 0
0 0 0 0 0 0 0 0 0 0 0 0 0 0 0 0 0 0 0 0 0 0 0 0 0 0 0 0 0 0 0 0 0 0 0 0 0 0 0 0 0 0 0
0 0 0 0 0 0 0 0 0 0 0 0 0 0 0 0 0 0 0 0 0 0 0 0 0 0 0 0 0 0 0 0 0 0 0 0 0 0 0 0 0 0 0
0 0 0 0 0 0 0 0 0 0 0 0 0 0 0 0 0 0 0 0 0 0 0 0 0 0 0 0 0 0 0 0 0 0 0 0 0 0 0 0 0 0 0
0 0 0 0 0 0 0 0 0 0 0 0 0 0 0 0 0 0 0 0 0 0 0 0 0 0 0 0 0 0 0 0 0 0 0 0 0 0 0 0 0 0 0
0 0 0 0 0 0 0 0 0 0 0 0 0 0 0 0 0 0 0 0 0 0 0 0 0 0 0 0 0 0 0 0 0 0 0 0 0 0 0 0 0 0 0
0 0 0 0 0 0 0 0 0 0 0 0 0 0 0 0 0 0 0 0 0 0 0 0 0 0 0 0 0 0 0 0 0 0 0 0 0 0 0 0 0 0 0
0 0 0 0 0 0 0 0 0 0 0 0 0 0 0 0 0 0 0 0 0 0 0 0 0 0 0 0 0 0 0 0 0 0 0 0 0 0 0 0 0 0 0
0 0 0 0 0 0 0 0 0 0 0 0 0 0 0 0 0 0 0 0 0 0 0 0 0 0 0 0 0 0 0 0 0 0 0 0 0 0 0 0 0 0 0
0 0 0 0 0 0 0 0 0 0 0 0 0 0 0 0 0 0 0 0 0 0 0 0 0 0 0 0 0 0 0 0 0 0 0 0 0 0 0 0 0 0 0
0 0 0 0 0 0 0 0 0 0 0 0 0 0 0 0 0 0 0 0 0 0 0 0 0 0 0 0 0 0 0 -0 0 0 0 0 0 0 0 0 0 0 0
Wind_Speed
8 8 7 7 7 7 7 7 7 6 7 7 7 7 8 8 7 6 6 6 6 4 4 4 4 3 2 2 2 2 2 2 3 2 2 2 3 3 3 3 4 5 5
8 8 8 7 7 7 7 7 6 7 7 7 7 7 8 8 8 8 8 7 7 7 6 6 6 4 4 3 3 4 3 4 4 4 2 2 4 3 3 4 4 4 5
7 7 7 6 6 7 6 6 6 6 6 6 7 7 8 8 8 8 8 8 8 8 7 7 7 6 6 4 5 5 4 4 4 4 4 2 3 3 3 4 4 4 5
7 6 6 6 7 6 6 6 6 6 6 6 6 7 7 8 8 8 8 7 7 7 7 8 7 8 8 7 6 6 5 5 4 4 5 4 4 3 3 4 5 4 4
6 6 5 5 5 5 5 5 5 5 6 6 5 6 6 6 7 8 8 8 7 7 7 7 7 9 10 8 6 6 6 5 5 5 5 4 4 4 4 3 5 5 5
6 4 3 4 4 4 4 4 4 4 4 4 5 5 5 5 7 9 8 6 6 6 6 6 5 6 7 8 9 8 8 7 7 5 5 6 7 5 4 4 4 5 6
6 4 3 3 3 2 2 2 3 3 3 3 3 3 3 3 5 7 8 5 5 5 4 3 3 2 3 3 5 6 7 8 8 6 7 8 7 6 5 6 6 7 8
6 5 4 3 3 3 3 2 1 1 2 2 2 2 2 1 3 5 5 3 2 2 3 3 3 1 1 2 3 4 4 5 6 6 7 8 8 6 6 7 7 8 8
7 6 4 3 3 4 3 2 2 2 3 2 2 2 2 2 1 2 3 2 1 1 1 1 1 1 2 2 2 4 5 5 5 6 7 8 10 10 7 5 5 6 8
7 5 4 5 5 5 4 4 4 5 5 5 6 6 6 6 7 6 4 3 2 1 1 1 2 2 3 3 2 3 5 6 5 5 5 6 7 8 7 7 6 7 7
7 7 8 7 7 6 6 5 6 7 7 8 8 7 8 8 9 10 7 3 2 1 2 2 2 4 4 4 2 2 5 6 5 5 5 5 5 4 5 5 6 6 8
8 9 9 8 7 7 7 7 6 7 7 7 7 7 6 6 8 9 10 8 4 2 2 2 2 5 5 5 3 3 5 4 2 3 3 4 5 5 5 6 6 7 8
9 9 8 8 8 7 7 7 6 6 6 5 5 5 5 5 6 9 9 8 7 3 2 4 5 5 4 3 4 5 4 2 2 3 4 4 5 6 6 6 7 7 8
9 8 7 8 8 8 7 6 5 5 5 5 5 4 4 4 5 5 5 5 6 4 3 4 5 5 4 3 4 4 3 3 3 3 4 5 5 5 6 6 6 7 7
8 7 7 7 7 7 8 7 6 6 4 5 4 3 3 3 4 6 4 4 4 3 3 3 3 4 4 4 4 4 4 4 4 4 5 5 6 6 6 6 6 6 7
7 6 5 5 5 6 7 8 12 10 12 11 8 5 4 4 5 7 8 8 8 6 3 3 4 4 4 4 5 5 5 5 5 5 6 6 6 7 7 7 6 7 8
6 5 4 4 5 5 5 5 5 6 10 11 10 9 8 7 8 9 9 7 8 6 4 4 4 4 5 5 5 5 5 6 5 5 6 6 7 7 7 7 7 8 9
5 6 5 4 4 4 4 4 4 4 4 4 6 9 9 9 9 9 8 5 5 5 4 4 4 4 5 5 5 5 6 6 6 6 6 7 7 7 8 8 8 10 10
5 4 4 4 4 4 4 4 4 4 4 3 3 5 8 7 7 8 7 4 4 5 5 4 4 5 5 6 6 6 6 7 7 7 7 8 7 7 8 9 9 11 11
4 7 6 4 4 4 4 4 3 3 3 3 3 4 4 5 5 6 5 4 4 5 5 5 5 6 6 6 6 6 7 7 7 7 7 7 7 8 9 11 10 10 10
4 5 7 5 4 4 3 3 3 2 2 2 3 3 4 3 4 5 5 5 5 5 5 6 5 6 6 6 6 7 8 7 7 7 7 8 8 9 9 9 11 11 11
4 4 4 4 3 3 3 2 2 2 2 2 2 3 5 3 4 4 5 5 5 5 5 5 5 5 6 6 7 7 8 8 8 8 8 9 9 9 10 10 10 10 10
5 5 4 4 3 4 3 2 2 2 2 2 2 3 3 4 4 4 5 5 5 5 5 5 6 6 6 6 6 7 7 8 8 9 10 10 10 9 9 10 12 12 11
4 5 4 3 3 3 2 2 2 2 2 2 3 3 3 4 4 5 5 5 6 6 5 5 6 8 11 9 7 7 7 8 10 9 12 11 11 10 10 10 11 12 12
4 4 3 3 2 2 2 2 2 2 2 2 3 3 4 4 5 5 6 6 7 7 8 7 6 8 11 13 11 10 10 11 11 10 10 9 11 11 11 12 11 12 12
4 4 3 2 2 2 1 1 2 2 2 2 3 3 4 4 5 5 6 6 7 7 8 7 9 11 13 11 12 14 12 12 12 12 9 8 10 10 11 10 12 11 12
Wind_Direction
181 183 180 182 184 181 186 194 194 190 187 191 195 195 195 194 188 187 194 188 194 201 197 198 208 189 189 189 179 175 181 173 206 255 252 269 268 269 274 254 251 251 259
182 180 181 176 176 183 193 197 193 194 195 199 198 199 201 198 192 194 201 199 200 207 210 206 218 205 205 200 193 200 201 199 205 238 248 248 252 259 264 268 263 254 254
173 175 177 176 179 189 195 192 194 197 199 198 195 201 204 200 197 202 203 204 208 213 211 211 218 208 219 215 211 214 215 209 207 226 250 243 255 255 263 265 264 263 262
166 169 179 185 189 192 189 187 190 191 193 197 202 206 205 201 200 202 204 209 215 220 219 218 218 213 220 220 221 223 221 218 214 228 249 255 254 249 242 261 273 260 264
158 166 185 183 179 179 185 187 184 185 194 194 199 206 204 200 205 203 204 209 214 223 226 226 227 224 224 221 223 224 219 224 226 236 251 259 258 248 249 247 267 281 273
144 154 159 149 157 174 184 180 175 180 184 182 196 202 200 214 214 205 203 209 212 219 229 233 234 236 237 233 234 229 216 221 230 235 247 253 262 259 261 257 265 277 282
115 115 113 122 139 160 161 154 164 172 168 176 193 191 193 213 204 200 202 198 208 216 216 222 233 234 224 240 245 243 236 234 229 233 249 255 262 257 256 262 256 256 263
99 95 92 106 103 99 107 123 140 142 144 150 160 171 176 208 196 192 189 183 190 204 204 202 210 242 281 262 260 262 261 255 246 239 246 257 262 265 253 259 266 267 266
75 70 67 87 93 88 86 84 88 96 98 105 103 115 108 59 66 161 157 137 135 128 106 125 181 261 326 304 269 276 284 283 268 256 258 266 272 273 268 266 262 262 272
68 66 60 68 76 76 75 72 71 76 74 75 63 57 60 52 48 61 86 95 99 83 56 45 40 6 345 345 285 282 288 292 303 304 292 287 281 278 267 246 251 259 267
65 64 59 59 66 70 73 73 80 81 78 72 67 57 52 46 44 49 57 69 66 59 41 25 17 13 358 347 330 278 277 291 297 295 295 296 296 289 281 263 248 248 259
68 65 58 54 59 64 70 67 70 79 80 74 72 61 48 40 41 41 44 47 44 55 27 7 359 6 4 359 356 329 318 317 311 312 311 308 308 305 300 292 278 266 257
69 63 60 60 56 56 65 69 68 70 77 72 70 65 45 31 28 33 35 34 36 45 21 15 13 13 9 6 1 354 351 357 343 323 309 303 301 299 301 299 294 285 276
69 60 58 62 58 53 52 55 65 65 75 76 73 68 49 30 21 14 15 15 17 20 12 11 17 20 22 10 359 1 3 348 329 310 302 300 302 304 305 304 300 303 297
69 63 62 65 70 66 61 51 56 51 75 92 84 80 62 38 5 7 18 12 2 359 4 18 19 12 10 5 358 353 350 348 338 324 312 309 307 305 303 304 296 296 288
72 63 66 73 75 79 83 71 53 62 63 67 72 75 59 46 26 28 27 26 23 26 44 28 13 6 359 351 345 340 337 337 332 323 315 310 307 305 303 301 295 291 290
82 77 76 80 85 84 84 90 79 51 52 54 53 52 49 37 32 26 22 25 28 32 36 18 4 353 346 341 335 329 324 322 318 313 310 307 304 301 300 299 298 295 292
80 82 86 85 87 86 85 84 84 78 53 34 28 33 31 30 29 23 18 25 22 22 15 2 350 342 335 329 324 320 317 316 313 310 307 304 302 302 301 299 297 296 295
82 83 81 81 81 81 81 80 76 73 66 46 25 16 14 13 18 18 18 21 9 2 356 347 340 333 327 322 317 314 311 308 308 307 304 304 304 303 299 297 295 294 291
83 97 93 89 85 82 79 80 74 68 59 43 28 11 360 9 11 4 6 3 357 349 341 335 331 328 324 319 317 314 312 309 310 307 306 305 304 300 297 297 296 294 291
89 92 91 87 84 83 82 79 74 66 52 34 14 359 2 4 357 350 351 351 346 340 335 331 327 326 324 320 319 317 314 311 310 309 308 306 304 301 298 293 291 289 289
98 95 92 91 87 82 79 72 67 57 39 23 2 355 1 5 355 348 347 344 341 337 335 331 329 327 325 323 321 317 313 311 312 312 308 304 300 298 296 293 292 292 290
102 101 95 89 87 85 76 61 50 38 21 8 358 358 360 357 352 349 345 343 340 339 336 332 327 325 325 322 317 312 309 310 311 308 303 299 297 295 294 293 293 293 292
104 107 105 98 86 78 68 52 39 30 21 10 3 360 356 352 349 347 344 340 338 335 332 330 326 325 327 326 319 314 312 313 312 302 296 292 293 292 291 290 291 292 292
105 105 104 99 90 79 65 53 41 33 24 14 7 2 357 354 351 348 344 341 338 334 334 331 327 327 327 325 323 321 317 310 304 304 299 292 289 290 291 291 291 294 293
102 100 96 93 86 77 66 53 43 32 23 16 13 7 359 353 349 346 343 340 337 332 330 329 329 330 327 325 324 323 316 311 309 307 301 293 291 291 296 293 294 294 294